Regional Weather Roundup
Issued by NWS

Home | Current Version | Previous Version | Text Only | Print | Product List | Glossary Off
Versions: 1 2 3 4 5 6 7 8 9 10 11 12 13 14 15 16 17 18 19 20 21 22 23 24 25 26 27 28 29 30 31 32 33 34 35 36 37 38 39 40 41 42 43 44 45 46 47 48 49 50

000
ASUS45 KCYS 201410
RWRWY

WYOMING REGIONAL WEATHER ROUNDUP
NATIONAL WEATHER SERVICE CHEYENNE WY
800 AM MDT MON APR 20 2015

NOTE:  "FAIR" INDICATES FEW OR NO CLOUDS BELOW 12,000 FEET
WITH NO SIGNIFICANT WEATHER AND/OR OBSTRUCTIONS TO VISIBILITY.

WYZ001-201500-
YELLOWSTONE NATIONAL PARK

CITY           SKY/WX    TMP DP  RH WIND       PRES   REMARKS
LK YELLOWSTONE   N/A     26  21  81 CALM      30.05S
W YELLOWSTONE  NOT AVBL

$$
WYZ002>013-054>058-071-098>099-201500-
NORTHERN WYOMING

CITY           SKY/WX    TMP DP  RH WIND       PRES   REMARKS
JACKSON        SUNNY     32  27  80 VRB6      30.03S WCI  26
CODY           FAIR      34  28  80 CALM      30.01S
GREYBULL       FAIR      35  18  49 E3        30.02R
WORLAND        FAIR      36  26  67 S5        30.01S WCI  32
SHERIDAN       FAIR      34  23  64 CALM      30.00R
BUFFALO          N/A    N/A N/A N/A MISG      29.98F
GILLETTE       FAIR      35  20  54 W10       29.97F WCI  27
HULETT         FAIR      32  21  64 SW7       29.97S WCI  26
NEWCASTLE      FAIR      32  21  64 N10       29.98F WCI  24

$$
WYZ014>020-022>026-101>103-201500-
CENTRAL WYOMING

CITY           SKY/WX    TMP DP  RH WIND       PRES   REMARKS
BIG PINEY      FAIR      32  24  72 S5        30.04R WCI  27
PINEDALE       FAIR      30  27  86 CALM      30.05R
DUBOIS         FAIR      30  23  74 NW9       30.00S WCI  22
LANDER         FAIR      33  25  72 CALM      30.00F
RIVERTON       FAIR      34  27  75 SW5       30.02S WCI  30
CASPER         FAIR      34  27  75 SW12      30.01S WCI  25
DOUGLAS        FAIR      33  28  81 NW8       30.01S WCI  26

$$
WYZ021-027>030-104>119-201500-
SOUTHERN WYOMING

CITY           SKY/WX    TMP DP  RH WIND       PRES   REMARKS
EVANSTON       FAIR      34  25  69 E7        30.02S WCI  28
FORT BRIDGER   FOG       32  32 100 CALM      30.06S VSB 0
ROCK SPRINGS   CLOUDY    30  29  96 NE5       30.04S WCI  25
DIXON          CLOUDY    34  30  85 E5        30.07R WCI  30
RAWLINS        FOG       27  25  92 CALM      30.04R VSB<1/4
SARATOGA       CLOUDY    28  27  93 MISG      30.05S
LARAMIE        FOG       23  23 100 CALM      30.01S VSB 1/4
CHEYENNE       PTSUNNY   30  24  78 W6        30.01S WCI  24
TORRINGTON     CLOUDY    32  26  78 W8        30.01R WCI  25
PINE BLUFFS    CLOUDY    32  28  86 W6        30.02S WCI  26

$$


USA.gov is the U.S. government's official web portal to all federal, state and local government web resources and services.